EN

Hourly Weather Aligarh

Today, 3 December, Thursday

Time Temperature Precipitation Wind Pressure Humidity
00:00 +19°C° 0 mm 1 mps 743 mmHg 29%
01:00 +19°C° 0 mm 1 mps 743 mmHg 29%
02:00 +18°C° 0 mm 1 mps 743 mmHg 29%
03:00 +18°C° 0 mm 1 mps 743 mmHg 30%
04:00 +16°C° 0 mm 1 mps 743 mmHg 30%
05:00 +16°C° 0 mm 1 mps 743 mmHg 32%
06:00 +18°C° 0 mm 1 mps 744 mmHg 31%
07:00 +19°C° 0 mm 1 mps 744 mmHg 29%
08:00 +20°C° 0 mm 1 mps 745 mmHg 28%
09:00 +22°C° 0 mm 1 mps 745 mmHg 25%
10:00 +25°C° 0 mm 1 mps 745 mmHg 22%
11:00 +27°C° 0 mm 1 mps 745 mmHg 18%
12:00 +28°C° 0 mm 1 mps 745 mmHg 17%
13:00 +29°C° 0 mm 1 mps 744 mmHg 17%
14:00 +29°C° 0 mm 1 mps 743 mmHg 16%
15:00 +27°C° 0 mm 1 mps 743 mmHg 18%
16:00 +25°C° 0 mm 1 mps 743 mmHg 20%
17:00 +23°C° 0 mm 1 mps 743 mmHg 24%
18:00 +22°C° 0 mm 1 mps 743 mmHg 25%
19:00 +22°C° 0 mm 1 mps 743 mmHg 25%
20:00 +21°C° 0 mm 1 mps 743 mmHg 26%
21:00 +20°C° 0 mm 1 mps 743 mmHg 27%
22:00 +20°C° 0 mm 1 mps 744 mmHg 28%
23:00 +19°C° 0 mm 1 mps 744 mmHg 29%

Tomorrow, 4 December, Friday

Time Temperature Precipitation Wind Pressure Humidity
00:00 +17°C° 0 mm 0 mps 743 mmHg 30%
01:00 +16°C° 0 mm 0 mps 743 mmHg 30%
02:00 +16°C° 0 mm 0 mps 742 mmHg 31%
03:00 +15°C° 0 mm 0 mps 742 mmHg 31%
04:00 +15°C° 0 mm 0 mps 742 mmHg 32%
05:00 +15°C° 0 mm 0 mps 742 mmHg 33%
06:00 +16°C° 0 mm 0 mps 743 mmHg 31%
07:00 +17°C° 0 mm 0 mps 743 mmHg 30%
08:00 +18°C° 0 mm 0 mps 744 mmHg 29%
09:00 +21°C° 0 mm 0 mps 744 mmHg 26%
10:00 +23°C° 0 mm 0 mps 744 mmHg 23%
11:00 +28°C° 0 mm 1 mps 744 mmHg 19%
12:00 +28°C° 0 mm 1 mps 743 mmHg 18%
13:00 +29°C° 0 mm 1 mps 742 mmHg 17%
14:00 +30°C° 0 mm 1 mps 741 mmHg 16%
15:00 +28°C° 0 mm 1 mps 741 mmHg 19%
16:00 +24°C° 0 mm 0 mps 741 mmHg 21%
17:00 +22°C° 0 mm 0 mps 741 mmHg 24%
18:00 +21°C° 0 mm 0 mps 741 mmHg 25%
19:00 +22°C° 0 mm 1 mps 742 mmHg 26%
20:00 +22°C° 0 mm 1 mps 742 mmHg 27%
21:00 +21°C° 0 mm 1 mps 742 mmHg 29%
22:00 +21°C° 0 mm 1 mps 742 mmHg 30%
23:00 +20°C° 0 mm 1 mps 742 mmHg 31%

Day after tomorrow, 5 December, Saturday

Time Temperature Precipitation Wind Pressure Humidity
00:00 +19°C° 0 mm 1 mps 742 mmHg 32%
01:00 +19°C° 0 mm 1 mps 742 mmHg 33%
02:00 +19°C° 0 mm 1 mps 742 mmHg 34%
03:00 +18°C° 0 mm 1 mps 742 mmHg 35%
04:00 +18°C° 0 mm 1 mps 742 mmHg 35%
05:00 +16°C° 0 mm 2 mps 742 mmHg 36%
06:00 +17°C° 0 mm 2 mps 742 mmHg 35%
07:00 +18°C° 0 mm 2 mps 743 mmHg 35%
08:00 +19°C° 0 mm 2 mps 744 mmHg 34%
09:00 +21°C° 0 mm 2 mps 744 mmHg 31%
10:00 +25°C° 0 mm 2 mps 744 mmHg 28%
11:00 +27°C° 0 mm 2 mps 744 mmHg 24%
12:00 +28°C° 0 mm 2 mps 743 mmHg 23%
13:00 +29°C° 0 mm 1 mps 743 mmHg 21%
14:00 +30°C° 0 mm 1 mps 742 mmHg 20%
15:00 +28°C° 0 mm 1 mps 742 mmHg 22%
16:00 +26°C° 0 mm 1 mps 741 mmHg 25%
17:00 +24°C° 0 mm 1 mps 741 mmHg 28%
18:00 +24°C° 0 mm 1 mps 742 mmHg 29%
19:00 +23°C° 0 mm 1 mps 742 mmHg 31%
20:00 +22°C° 0 mm 1 mps 743 mmHg 32%
21:00 +21°C° 0 mm 1 mps 743 mmHg 33%
22:00 +21°C° 0 mm 1 mps 743 mmHg 34%
23:00 +21°C° 0 mm 1 mps 743 mmHg 35%

6 December, Sunday

Time Temperature Precipitation Wind Pressure Humidity
00:00 +20°C° 0 mm 1 mps 743 mmHg 36%
01:00 +20°C° 0 mm 1 mps 743 mmHg 37%
02:00 +19°C° 0 mm 1 mps 743 mmHg 39%
03:00 +19°C° 0 mm 1 mps 743 mmHg 40%
04:00 +18°C° 0 mm 1 mps 743 mmHg 41%
05:00 +18°C° 0 mm 1 mps 744 mmHg 42%
06:00 +19°C° 0 mm 1 mps 744 mmHg 41%
07:00 +20°C° 0 mm 1 mps 745 mmHg 41%
08:00 +21°C° 0 mm 1 mps 746 mmHg 40%
09:00 +23°C° 0 mm 1 mps 746 mmHg 35%
10:00 +25°C° 0 mm 1 mps 746 mmHg 31%
11:00 +28°C° 0 mm 2 mps 746 mmHg 26%
12:00 +29°C° 0 mm 2 mps 745 mmHg 24%
13:00 +30°C° 0 mm 2 mps 744 mmHg 22%
14:00 +31°C° 0 mm 2 mps 744 mmHg 21%
15:00 +29°C° 0 mm 1 mps 743 mmHg 24%
16:00 +27°C° 0 mm 1 mps 743 mmHg 26%
17:00 +25°C° 0 mm 1 mps 743 mmHg 29%
18:00 +24°C° 0 mm 1 mps 744 mmHg 30%
19:00 +23°C° 0 mm 1 mps 744 mmHg 31%
20:00 +22°C° 0 mm 1 mps 744 mmHg 32%
21:00 +22°C° 0 mm 1 mps 744 mmHg 33%
22:00 +21°C° 0 mm 1 mps 744 mmHg 33%
23:00 +20°C° 0 mm 2 mps 744 mmHg 34%

7 December, Monday

Time Temperature Precipitation Wind Pressure Humidity
00:00 +19°C° 0 mm 2 mps 744 mmHg 35%
01:00 +19°C° 0 mm 2 mps 744 mmHg 36%
02:00 +18°C° 0 mm 2 mps 744 mmHg 37%
03:00 +18°C° 0 mm 2 mps 744 mmHg 39%
04:00 +17°C° 0 mm 2 mps 744 mmHg 41%
05:00 +17°C° 0 mm 2 mps 744 mmHg 43%
06:00 +18°C° 0 mm 2 mps 745 mmHg 42%
07:00 +20°C° 0 mm 1 mps 745 mmHg 41%
08:00 +20°C° 0 mm 1 mps 746 mmHg 40%
09:00 +23°C° 0 mm 2 mps 746 mmHg 35%
10:00 +26°C° 0 mm 2 mps 746 mmHg 29%
11:00 +28°C° 0 mm 3 mps 746 mmHg 24%
12:00 +29°C° 0 mm 3 mps 746 mmHg 22%
13:00 +30°C° 0 mm 4 mps 745 mmHg 20%
14:00 +32°C° 0 mm 4 mps 744 mmHg 18%
15:00 +29°C° 0 mm 3 mps 744 mmHg 21%
16:00 +27°C° 0 mm 3 mps 744 mmHg 24%
17:00 +25°C° 0 mm 2 mps 744 mmHg 27%
18:00 +24°C° 0 mm 2 mps 744 mmHg 28%
19:00 +23°C° 0 mm 2 mps 745 mmHg 29%
20:00 +21°C° 0 mm 2 mps 745 mmHg 31%
21:00 +20°C° 0 mm 2 mps 745 mmHg 31%
22:00 +20°C° 0 mm 2 mps 745 mmHg 32%
23:00 +20°C° 0 mm 2 mps 745 mmHg 32%

8 December, Tuesday

Time Temperature Precipitation Wind Pressure Humidity
00:00 +20°C° 0 mm 1 mps 745 mmHg 32%
01:00 +20°C° 0 mm 1 mps 745 mmHg 33%
02:00 +19°C° 0 mm 1 mps 745 mmHg 33%
03:00 +19°C° 0 mm 1 mps 745 mmHg 33%
04:00 +18°C° 0 mm 2 mps 745 mmHg 33%
05:00 +17°C° 0 mm 2 mps 745 mmHg 34%
06:00 +18°C° 0 mm 2 mps 745 mmHg 33%
07:00 +19°C° 0 mm 2 mps 746 mmHg 33%
08:00 +20°C° 0 mm 2 mps 747 mmHg 32%
09:00 +23°C° 0 mm 2 mps 747 mmHg 28%
10:00 +26°C° 0 mm 3 mps 747 mmHg 24%
11:00 +28°C° 0 mm 3 mps 747 mmHg 20%
12:00 +29°C° 0 mm 3 mps 746 mmHg 19%
13:00 +30°C° 0 mm 3 mps 745 mmHg 18%
14:00 +31°C° 0 mm 3 mps 744 mmHg 18%
15:00 +29°C° 0 mm 3 mps 744 mmHg 20%
16:00 +27°C° 0 mm 3 mps 744 mmHg 23%
17:00 +25°C° 0 mm 2 mps 744 mmHg 26%
18:00 +24°C° 0 mm 2 mps 744 mmHg 26%
19:00 +23°C° 0 mm 2 mps 744 mmHg 27%
20:00 +21°C° 0 mm 2 mps 744 mmHg 28%
21:00 +22°C° 0 mm 1 mps 744 mmHg 29%
22:00 +21°C° 0 mm 1 mps 744 mmHg 30%
23:00 +21°C° 0 mm 1 mps 744 mmHg 31%
Show more

We Need Your Consent

Meteoprog and our Service Providers may store and access personal data such as cookies, device identifiers or other similar technologies on your device and process such data to personalise content and ads, as well as provide social media features and to analyse the traffic.

  • Store and/or access information on your device

    Cookies, device identifiers or other information can be stored or accessed on your device for the purposes indicated above.

  • Personalised ads and content, ad and content measurement, audience insights, and products development

    Ads and content can be personalised based on a profile. More data can be added to better personalise ads and content. Ad and content performance can be measured. Insights about the audience who saw the ads and content can be derived. Such data can be used to develop or improve user’s experience, systems and software.

By clicking ‘I Agree’ you will allow the use of indicated cookies, device identifiers, web beacons or other similar technologies. Your settings can be changed in the browser on your device.

For certain purposes, legitimate interests may be relied on, rather than consent. You can read more about this in our Privacy and Cookie Policy.